This is the latest recevied weather packets stored in our database for station/object AD7ZD. If no packets are shown the sender has not sent any weather packets the latest 10 day(s).
| Time | Temp. | Humidity | Pressure | Rain* | Wind** | Luminosity | Snow |
|---|---|---|---|---|---|---|---|
| 1778004744 | 10.56° C | 81% | 1011.4 hPa | 0 mm | - | 245 W/m² | - |
| 1778004440 | 10° C | 81% | 1011.4 hPa | 0 mm | - | 219 W/m² | - |
| 1778004137 | 10° C | 81% | 1011.6 hPa | 0 mm | - | 180 W/m² | - |
| 1778003833 | 10° C | 82% | 1011.6 hPa | 0 mm | - | 119 W/m² | - |
| 1778003530 | 10° C | 83% | 1011.4 hPa | 0 mm | - | 100 W/m² | - |
| 1778003226 | 10° C | 82% | 1011.6 hPa | 0 mm | - | 91 W/m² | - |
| 1778002923 | 10° C | 82% | 1011.4 hPa | 0 mm | - | 106 W/m² | - |
| 1778002619 | 10° C | 83% | 1011.1 hPa | 0 mm | - | 144 W/m² | - |
| 1778002316 | 10° C | 83% | 1010.9 hPa | 0 mm | - | 138 W/m² | - |
| 1778002014 | 9.44° C | 84% | 1011.1 hPa | 0 mm | - | 116 W/m² | - |
| 1778001710 | 9.44° C | 86% | 1011 hPa | 0 mm | - | 122 W/m² | - |
| 1778001410 | 9.44° C | 87% | 1011 hPa | 0 mm | - | 116 W/m² | - |
| 1778001107 | 9.44° C | 88% | 1010.9 hPa | 0 mm | - | 138 W/m² | - |
| 1778000804 | 9.44° C | 89% | 1010.8 hPa | 0 mm | - | 177 W/m² | - |
| 1778000501 | 9.44° C | 90% | 1010.6 hPa | 0 mm | - | 247 W/m² | - |
| 1778000201 | 9.44° C | 91% | 1010.8 hPa | 0 mm | - | 154 W/m² | - |
| 1777999897 | 8.89° C | 91% | 1010.8 hPa | 0 mm | - | 184 W/m² | - |
| 1777999593 | 8.89° C | 92% | 1010.5 hPa | 0 mm | - | 106 W/m² | - |
| 1777999291 | 8.89° C | 92% | 1010.8 hPa | 0 mm | - | 65 W/m² | - |
| 1777998989 | 8.89° C | 92% | 1010.6 hPa | 0 mm | - | 79 W/m² | - |
| 1777998686 | 8.89° C | 93% | 1010.6 hPa | 0 mm | - | 99 W/m² | - |
| 1777998383 | 8.89° C | 93% | 1010.6 hPa | 0 mm | - | 132 W/m² | - |
| 1777998081 | 8.89° C | 93% | 1010.5 hPa | 0 mm | - | 125 W/m² | - |
| 1777997778 | 8.89° C | 93% | 1010.4 hPa | 0 mm | - | 166 W/m² | - |
| 1777997475 | 8.33° C | 93% | 1010.2 hPa | 0 mm | - | 157 W/m² | - |
* Rain latest hour (hover to see other rain measurements)
** Current wind speed in m/s (hover to see current wind gust speed)